Location: Powder Track
(41.8531°N, 72.3584°W)
Time: 09:32:00
(UTC+00:00)

Transit 4A - Pass Details

Date: 13 August 2021
Orbit: 871 x 974 km, 66.8° (Epoch: 20 September)

Event Time Altitude Azimuth Distance (km) Brightness Sun altitude
Rises 12:47:13 0° 307° (NW) 3,501 10.4 30.5°
Reaches altitude 10° 12:52:13 10° 270° (W) 2,580 9.8 31.5°
Maximum altitude 12:53:20 11° 259° (W) 2,547 9.8 31.7°
Drops below altitude 10° 12:54:26 10° 248° (WSW) 2,590 9.9 31.9°
Sets 12:59:33 0° 211° (SSW) 3,556 10.8 32.8°
